Flag for U.S.A. Weather past 2 weeks in Memphis, Tennessee, U.S.A.

Now
77 °F

Light rain. Fog.


Feels Like: 78 °F
Forecast: 73 / 84 °F
Wind: 8 mph from Southeast

Location: Memphis International Airport

Current Time: Aug 30, 2014 at 8:06:01 PM

Latest Report: Aug 30, 2014 at 6:54 PM


Visibility: 6 mi

Pressure: 30.00 "Hg

Humidity: 90%

Dew point: 74 °F

Location of MemphisLocation

Historic Weather in Memphis — Graph

°F

Memphis temperature yesterday

Maximum temperature yesterday: 94 °F (at 12:54 PM)
Minimum temperature yesterday: 74 °F (at 5:54 AM)
Average temperature yesterday: 84 °F

Past Weeks' High & Low Weather Summary

 TemperatureHumidityPressure
High98 °F (Aug 23, 2:54 PM)94% (Aug 18, 5:54 AM)30.10 "Hg (Aug 18, 5:54 AM)
Low69 °F (Aug 16, 3:54 AM)33% (Aug 28, 12:54 PM)29.83 "Hg (Aug 19, 2:54 AM)
Average84 °F65%29.97 "Hg
* Reported Aug 15 6:54 PM — Aug 30 6:54 PM, Memphis, Weather by CustomWeather, © 2014

Note: Actual official high and low records may vary slightly from our data, if they occured in-between our weather recording intervals... More about our weather records

Advertising

Memphis weather history for previous 24 hours

 ConditionsComfort  
Time TempWeatherWind HumidityBarometerVisibility
6:54 PM
Aug 30
77 °FLight rain. Fog.8 mph90%30.00 "Hg6 mi
5:54 PM77 °FLight rain. Sunny.6 mph90%30.00 "Hg7 mi
4:54 PM78 °FLight rain. Cloudy.5 mph87%29.99 "Hg9 mi
4:01 PM81 °FLight rain. Cloudy.3 mph79%30.00 "Hg10 mi
3:54 PM80 °FBroken clouds.No wind81%29.98 "Hg10 mi
2:54 PM79 °FPartly sunny.3 mph82%30.01 "Hg10 mi
1:54 PM78 °FLight rain. Fog.No wind87%30.02 "Hg1 mi
12:54 PM79 °FLight rain. More clouds than sun.3 mph79%30.04 "Hg7 mi
11:54 AM80 °FLight rain. Cloudy.5 mph79%30.04 "Hg10 mi
10:54 AM79 °FBroken clouds.No wind82%30.03 "Hg10 mi
10:03 AM79 °FLight rain. Overcast.6 mph84%30.05 "Hg9 mi
9:54 AM78 °FOvercast.8 mph84%30.04 "Hg9 mi
8:54 AM78 °FOvercast.9 mph84%30.03 "Hg9 mi
7:54 AM78 °FLight rain. Cloudy.6 mph84%30.02 "Hg9 mi
6:54 AM77 °FMore clouds than sun.6 mph82%30.01 "Hg9 mi
5:54 AM77 °FOvercast.5 mph82%30.00 "Hg10 mi
4:54 AM79 °FOvercast.7 mph74%29.98 "Hg10 mi
3:54 AM79 °FPassing clouds.9 mph72%29.98 "Hg10 mi
2:54 AM78 °FPassing clouds.6 mph76%29.97 "Hg10 mi
1:54 AM78 °FPassing clouds.No wind76%29.97 "Hg10 mi
12:54 AM81 °FPassing clouds.3 mph69%29.98 "Hg10 mi
11:54 PM
Aug 29
80 °FPartly cloudy.3 mph71%29.99 "Hg10 mi
10:54 PM82 °FPartly cloudy.No wind67%29.97 "Hg10 mi
9:54 PM82 °FPassing clouds.No wind65%29.96 "Hg10 mi
8:54 PM83 °FPassing clouds.5 mph63%29.94 "Hg10 mi
Weather by CustomWeather, © 2014

See weather overviewHow to use our weather pages